#timestamp,LO_Frequency,Hit,StdDev 
1608996275.7,286046971.5,P
1608996295.5,286046967.9,P
1608996315.4,286046968.7,P
1608996335.2,286046968.5,Y
1608996355.0,286046995.5,P
1608996355.9,286046995.5,N
1608996375.8,286046997.6,N
1608996395.6,286046997.7,N
1608996415.5,286046995.8,N
1608996435.3,286046993.8,N
1608996455.1,286046993.3,N
1608996475.9,286046995.7,N
1608996495.7,286046993.9,N
1608996515.5,286046993.2,N
1608996535.4,286046990.7,N
1608996555.2,286046991.0,N
1608996575.1,286046990.8,N
1608996576.0,286046990.8,N
1608996595.8,286046991.9,N
1608996615.6,286046990.7,N
1608996635.5,286046989.7,N
1608996655.3,286046987.2,N
1608996675.1,286046987.6,N
1608996695.9,286046988.2,N
1608996715.7,286046985.8,N
1608996735.6,286046985.9,N
1608996755.4,286046986.6,N
1608996775.2,286046982.2,Y
1608996795.1,286046992.1,P
1608996796.0,286046992.1,P
1608996815.8,286046993.5,P
1608996835.7,286046992.0,Y
1608996855.5,286046998.6,P
1608996875.3,286047001.0,N
1608996895.2,286047000.7,N
1608996915.0,286046998.4,N
1608996915.9,286046998.4,N
1608996935.7,286046998.9,N
1608996955.6,286047000.6,N
1608996975.4,286046999.9,N
1608996995.3,286046998.5,N
1608997015.1,286046999.4,N
1608997016.0,286046999.4,N
1608997035.8,286046999.1,N
1608997055.7,286046997.2,N
1608997075.5,286046999.4,N
1608997095.3,286046999.5,N
1608997115.2,286046995.2,N
1608997135.0,286046995.4,N
1608997135.9,286046995.4,N
1608997155.8,286046996.3,N
1608997175.6,286046993.9,N
1608997195.4,286046996.4,N
1608997215.3,286046994.3,N
1608997235.1,286046992.5,Y
1608997255.9,286046996.0,P
1608997275.7,286046995.7,P
1608997295.5,286046993.6,P
1608997315.4,286046996.1,N
1608997335.2,286046996.4,N
1608997355.0,286046995.5,Y
1608997355.9,286046995.5,P
1608997375.8,286046999.4,N
1608997395.6,286046998.6,N
1608997415.5,286046996.7,N
1608997435.3,286046997.1,N
1608997455.1,286046997.8,N
1608997475.9,286046996.9,N
1608997495.7,286046997.1,N
1608997515.5,286046999.0,N
1608997535.4,286046997.8,N
1608997555.2,286046997.9,N
1608997575.1,286046995.5,Y
1608997576.0,286046995.5,P
1608997595.8,286047000.8,N
1608997615.6,286046998.1,N
1608997635.5,286047001.2,N
1608997655.3,286046996.6,N
1608997675.1,286046996.6,N
1608997695.9,286046994.9,N
1608997715.7,286046999.3,N
1608997735.6,286046996.9,N
1608997755.4,286046996.6,N
1608997775.2,286046997.2,N
1608997795.1,286046997.8,N
1608997796.0,286046997.8,N
1608997815.8,286046996.7,N
1608997835.7,286046995.5,N
1608997855.5,286046996.3,N
1608997875.3,286046994.2,Y
1608997895.2,286046995.4,P
1608997915.0,286046996.9,P
1608997915.9,286046996.9,P
1608997935.8,286046999.2,N
1608997955.6,286046996.5,N
1608997975.4,286046998.3,N
1608997995.3,286046999.5,N
1608998015.1,286046999.3,N
1608998035.8,286046999.1,N
1608998055.7,286046999.6,N
1608998075.5,286046997.2,N
1608998095.3,286046997.6,N
1608998115.2,286046996.2,N
1608998135.0,286046995.8,Y
1608998135.9,286046995.8,P
1608998155.8,286046998.6,N
1608998175.6,286047001.1,N
1608998195.4,286046998.6,N
1608998215.3,286046998.2,N
1608998235.1,286046998.9,N
1608998255.9,286047001.1,N
1608998275.7,286047000.6,N
1608998295.5,286046998.3,N
1608998315.4,286046997.1,N
1608998335.2,286046997.4,N
1608998355.0,286046996.8,N
1608998355.9,286046996.8,N
1608998375.8,286046997.7,N
1608998395.6,286046995.0,Y
